Regional Weather Roundup
Issued by NWS Lake Charles, LA

Home | Current Version | Previous Version | Text Only | Print | Product List | Glossary On
Versions: 1 2 3 4 5 6 7 8 9 10 11 12 13 14 15 16 17 18 19 20 21 22 23 24 25 26 27
000
ASUS44 KLCH 281610
RWRLCH
REGIONAL WEATHER ROUNDUP
NATIONAL WEATHER SERVICE LAKE CHARLES LA
1100 AM CDT TUE MAR 28 2017

Note: "fair" indicates few or no clouds below 12,000 feet with no
significant weather and/or obstructions to visibility.


ACROSS SOUTHEAST TEXAS

CITY           SKY/WX    TMP DP  RH WIND       PRES   REMARKS
BEAUMONT       PTSUNNY   80  68  66 MISG      29.93S
BEAUMONT CITY  PTSUNNY  N/A N/A N/A SE12G20   29.94R
ORANGE         PTSUNNY   79  69  72 S8        29.96R
JASPER           N/A     78  70  77 E7        29.96S
$$

ACROSS CENTRAL LOUISIANA

CITY           SKY/WX    TMP DP  RH WIND       PRES   REMARKS
LEESVILLE      MOSUNNY   76 -31   1 SE9       29.95F
FULLERTON      PTSUNNY   77  68  73 VRB3      29.94S
ALEXANDRIA INT PTSUNNY   77  69  76 S9        29.96S
ESLER FIELD    PTSUNNY   76  69  79 S7        29.98S
DERIDDER       PTSUNNY   77  69  76 SE9       29.98S HAZE
OAKDALE        MOSUNNY   77  68  74 S5        29.97S
OPELOUSAS      PTSUNNY   79  65  62 MISG      29.99R
$$

ACROSS SOUTHWEST AND SOUTH CENTRAL LOUISIANA

CITY           SKY/WX    TMP DP  RH WIND       PRES   REMARKS
SULPHUR        PTSUNNY   80  69  69 SE12G18   29.96S
LAKE CHARLES   PTSUNNY   78  67  68 SE12      29.96R
CHENNAULT INT  NOT AVBL
CAMERON PHI    SUNNY     75  72  88 SE14      29.95S
DEQUINCY       FAIR      76  68  76 SE8       29.95S
JENNINGS       PTSUNNY   77  67  71 SE12      29.97S
LAFAYETTE      PTSUNNY   80  67  64 S6        29.99S
NEW IBERIA     MOSUNNY   78  66  66 S8        30.00S
ABBEVILLE      PTSUNNY   77  70  78 SE10      30.00S
PATTERSON      MOSUNNY   79  69  71 SE9       30.01F
SALT POINT       N/A     76  69  79 SE10      29.99S
$$

SELECTED SITES ACROSS THE REGION

CITY           SKY/WX    TMP DP  RH WIND       PRES   REMARKS
HOUSTON BUSH   MOSUNNY   79  68  69 SE13      29.90S
HOUSTON HOBBY  MOSUNNY   80  68  66 SE13      29.90R
GALVESTON      CLOUDY    77  72  84 SE15      29.92R
COLLEGE STAT   PTSUNNY   77  69  76 SE13      29.87S
CONROE         MOSUNNY   78  68  71 SE8       29.90S
HUNTSVILLE     MOSUNNY   78  66  66 S12       29.90R
LUFKIN         CLOUDY    75  68  78 SE10      29.93R
SHREVEPORT     PTSUNNY   77  65  66 SE7       29.95S
MONROE         CLOUDY    72  67  84 CALM      30.00R
NATCHEZ MS     NOT AVBL
BATON ROUGE    MOSUNNY   80  66  62 SE9       30.01R
N.O. INTL ARPT PTSUNNY   77  68  73 S8        30.03S
SLIDELL        PTSUNNY   79  66  64 SW8       30.03S
$$

MARINE REPORTS

STATION/POSITION TIME  SKY/WX   TEMP    WIND        PRES    VSBY
                                AIR SEA DIR/SP/G
                 (UTC)          (F)     (DEG/KT/KT) (MB)    (MI)
BUOY 30 S HIGH I 1450            73 73  120/ 16/ 17 1012.5
WVE H/P(F/S)=  3/ 7

SEA RIM ST PARK  1500            74     130/ 11/ 15 1014.0R
PORT ARTHUR      1548               73  140/  8/ 13 1014.1R
SABINE PASS N    1548            74 75  130/ 14/ 19 1015.2R
TEXAS POINT      NOT AVBL
CALCASIEU PASS   1548            74 75  150/ 12/ 17   N/A
LK CHARLES BEACH 1548            79 71              1014.8R
MARSH ISLAND     NOT AVBL
FRESH WATER LOCK 1548            74 76  120/  9/ 14 1015.4R
AMERADA PASS     1548            76 65  110/  5/ 10 1016.0S
$$




USA.gov is the U.S. government's official web portal to all federal, state and local government web resources and services.